Regional Weather Roundup
Issued by NWS

Home | Current Version | Previous Version | Text Only | Print | Product List | Glossary Off
Versions: 1 2 3 4 5 6 7 8 9 10 11 12 13 14 15 16 17 18 19 20 21 22 23 24 25 26 27 28 29 30 31 32 33 34 35 36 37 38 39 40 41 42 43 44 45 46 47 48 49 50

000
ASUS43 KDMX 060604
RWRIA

WEATHER ROUNDUP FOR IOWA
NATIONAL WEATHER SERVICE DES MOINES IA
  ISSUED BY NWS QUAD CITIES IA IL
1200 AM CST FRI MAR 06 2015

NOTE: "FAIR" INDICATES FEW OR NO CLOUDS BELOW 12,000 FEET WITH NO
SIGNIFICANT WEATHER AND/OR OBSTRUCTIONS TO VISIBILITY.

* - THESE STATIONS ARE NOT NWS STATIONS...THUS NOT UNDER NWS
QUALITY CONTROL.  THEY ALSO DO NOT REPORT WEATHER SUCH
AS PRECIPITATION OR FOG.

IAZ001>003-012>014-020>022-031>034-043>046-060700-
   NORTHWEST IOWA

CITY           SKY/WX    TMP DP  RH WIND       PRES   REMARKS
CARROLL *      CLOUDY    16   7  67 S8        30.30F WCI   5
CHEROKEE *     MOCLDY    19   8  61 S10       30.25F WCI   7
6HR MIN TEMP:  16; 6HR MAX TEMP:  24;

DENNISON *     CLOUDY    21   7  53 S16G22    30.26F WCI   7
LE MARS *      MOCLDY    23   9  54 S17       30.21F WCI   9
ORANGE CITY *  CLEAR     19   9  63 S10       30.19F WCI   8
SHELDON *      CLEAR     18   7  62 S14       30.19F WCI   4
SIOUX CITY     MOCLDY    23   9  55 MISG      30.25F
6HR MIN TEMP:  23; 6HR MAX TEMP:  31;

SPENCER        CLEAR     16   5  62 S14       30.23F WCI   2
6HR MIN TEMP:  15; 6HR MAX TEMP:  20;

STORM LAKE *   MOCLDY    14   5  67 S14       30.25F WCI  -1
$$

IAZ055>058-069>071-079>083-090>094-060700-
   SOUTHWEST IOWA

CITY           SKY/WX    TMP DP  RH WIND       PRES   REMARKS
ATLANTIC *     CLOUDY    21   7  53 S10G18    30.33F WCI  10
AUDUBON *      MOCLDY    19   7  58 S12       30.30F WCI   7
CLARINDA *     MOCLDY    21   7  53 S9        30.39F WCI  11
COUNCIL BLFS * CLOUDY    23   9  54 S13       30.29F WCI  11
CRESTON *      CLEAR     16   5  62 S10       30.36F WCI   3
HARLAN *       CLOUDY    23   9  54 S12       30.34F WCI  12
LAMONI         CLEAR     18   7  62 S9        30.39F WCI   7
6HR MIN TEMP:  18; 6HR MAX TEMP:  23;

RED OAK *      CLOUDY    23   7  50 S12       30.35F WCI  12
SHENANDOAH *   PTCLDY    21   9  58 S10       30.36F WCI  10
$$

IAZ047>049-059>061-072>074-084-060700-
   CENTRAL IOWA

CITY           SKY/WX    TMP DP  RH WIND       PRES   REMARKS
AMES           CLEAR     10   2  69 SE10      30.37F WCI  -4
6HR MIN TEMP:   9; 6HR MAX TEMP:  15;

ANKENY *       CLEAR     12   3  67 S6        30.40F WCI   3
BOONE *        CLEAR     10   5  79 S12       30.33F WCI  -4
CHARITON *     CLEAR     16   5  62 S12G17    30.40F WCI   3
DES MOINES     PTCLDY    16   4  59 S10       30.39F WCI   4
6HR MIN TEMP:  16; 6HR MAX TEMP:  21;

GRINNELL *     PTCLDY     9   2  75 SE10      30.41F WCI  -6
6HR MIN TEMP:   6; 6HR MAX TEMP:  13;

KNOXVILLE *    CLEAR     12   3  67 S10       30.40F WCI  -1
MARSHALLTOWN   PTCLDY     5  -2  72 SE10      30.39F WCI -10
6HR MIN TEMP:   3; 6HR MAX TEMP:  11;

NEWTON *       CLEAR      7   1  78 SE10      30.41F WCI  -8
PELLA *        CLEAR     13   8  78 SE9       30.44F WCI   1
6HR MIN TEMP:  10; 6HR MAX TEMP:  17;

PERRY *          N/A     15   8  73 SE10      30.35F WCI   2
6HR MIN TEMP:  13; 6HR MAX TEMP:  21;

$$

IAZ004>006-015-016-023>025-035-036-060700-
   NORTH CENTRAL IOWA

CITY           SKY/WX    TMP DP  RH WIND       PRES   REMARKS
ALGONA *       CLEAR     14  12  92 S18       30.28F WCI  -3
CLARION *      CLEAR     10   3  72 S13       30.32F WCI  -5
ESTHERVILLE    CLEAR     12   5  73 S18       30.23F WCI  -6
6HR MIN TEMP:  12; 6HR MAX TEMP:  17;

FORT DODGE *   CLEAR     16   1  53 S10G16    30.32F WCI   3
6HR MIN TEMP:  14; 6HR MAX TEMP:  18;

MASON CITY     PTCLDY     1  -5  75 S10       30.34F WCI -15
6HR MIN TEMP:   1; 6HR MAX TEMP:   9;

WEBSTER CITY * CLEAR     10   3  72 SE14      30.32F WCI  -5
IOWA FALLS *   FAIR       4  -3  75 SE8       30.37F WCI -10
6HR MIN TEMP:   1; 6HR MAX TEMP:  10;

$$

IAZ007>011-017>019-026>030-037>042-050>054-066-060700-
   NORTHEAST IOWA

CITY           SKY/WX    TMP DP  RH WIND       PRES   REMARKS
CEDAR RAPIDS   PTCLDY    -1  -5  82 S8        30.45F WCI -15
6HR MIN TEMP:  -3; 6HR MAX TEMP:   7;

CHARLES CITY * MOCLDY     1  -4  78 S12       30.37F WCI -15
CLINTON *      PTCLDY     1  -4  78 S5        30.52F WCI  -8
6HR MIN TEMP:   0; 6HR MAX TEMP:   7;

DECORAH *      MOCLDY     0  -8  71 S7        30.37F WCI -13
DUBUQUE        MOCLDY    -5 -10  79 S5        30.44F WCI -16
6HR MIN TEMP:  -6; 6HR MAX TEMP:   6;

MONTICELLO *   MOCLDY    -8 -13  77 CALM      30.47F
OELWEIN *      MOCLDY    -4  -9  77 SE10      30.41F WCI -21
WATERLOO       PTCLDY     3  -3  76 SE8       30.41F WCI -10
6HR MIN TEMP:  -2; 6HR MAX TEMP:   7;

$$

IAZ064-065-067-068-078-060700-
   EAST CENTRAL IOWA

CITY           SKY/WX    TMP DP  RH WIND       PRES   REMARKS
DAVENPORT      MOCLDY     0  -6  76 S6        30.51F WCI -12
6HR MIN TEMP:   0; 6HR MAX TEMP:   9;

IOWA CITY      PTCLDY     2  -4  76 CALM      30.51F
6HR MIN TEMP:   1; 6HR MAX TEMP:  11;

MT. PLEASANT * PTCLDY     4  -1  77 S7        30.51F WCI  -8
6HR MIN TEMP:   2; 6HR MAX TEMP:  15;

MUSCATINE *    PTCLDY     3   0  85 CALM      30.54F
QUAD CITIES    MOCLDY     1  -5  75 CALM      30.52F
6HR MIN TEMP:   1; 6HR MAX TEMP:  12;

$$

IAZ062-063-075>077-085>089-095>099-060700-
   SOUTHEAST IOWA

CITY           SKY/WX    TMP DP  RH WIND       PRES   REMARKS
BURLINGTON     PTCLDY     5  -2  72 CALM      30.51F
6HR MIN TEMP:   4; 6HR MAX TEMP:  14;

FAIRFIELD *    PTCLDY    10   0  61 S8        30.49F WCI  -1
FORT MADISON * PTCLDY     9   0  66 S6        30.52F WCI  -1
KEOKUK *       PTCLDY    10   3  72 S5        30.52F WCI   2
OSKALOOSA *    FAIR       9   3  78 SE10      30.45F WCI  -5
6HR MIN TEMP:   8; 6HR MAX TEMP:  15;

CENTERVILLE *  FAIR      14   7  73 SE8       30.45F WCI   3
OTTUMWA        CLEAR     12   3  67 S12       30.45F WCI  -2
6HR MIN TEMP:   7; 6HR MAX TEMP:  17;

WASHINGTON *   PTCLDY     7   3  85 S9        30.49F WCI  -7
$$

ABBREVIATIONS USED IN REMARKS
   TC - TEMPERATURES IN CELSIUS
  WCI - WIND CHILL INDEX
   HX - HEAT INDEX
  VSB - VISIBILITY
$$


USA.gov is the U.S. government's official web portal to all federal, state and local government web resources and services.